2021-101C (49392 NORAD) Tracking and Keplerian Element Data

This shows tracking and keplerian element data for the satellite.

Feedback or suggestion? Click here.




ElementValue
Catalog49392
Name2021-101C
Epoch Orbit1083
Epoch Day16.09392722
Epoch Year2022
RAAN339.3616
Inclination34.9981
Eccentricity0.0003463
Argument of Perigee239.7291
Mean Anonmoly217.7118
Mean Motion15.24059868
Decay Rate7.497E-05
L11 49392U 21101C 22016.09392722 .00007497 00000+0 30271-3 0 9999
L22 49392 34.9981 339.3616 0003463 239.7291 217.7118 15.24059868 10830

Live tracking and technical data element details for 2021-101C (NORAD 49392). 2021-101C can be tracked NOW for your location showing map with azimuth and elevation plus other details from your city location.

Track the satellite on the map from your city or location and see movement details for azimuth, elevation, latitude, longitude, range, height, and movement on the map or in text.







IsCatalogInMostPopularTable: catalog: 49392, numindb: 6
Update: records affected: 1



GetName: 49392 2021-101C

Hit Count: updated at: Thu, 20 Jan 2022 17:47:56 GMT